[[{"header":{"parameterUnit":"m.s-1","parameterCategory":1,"la1":30.2991,"la2":30.254,"lo1":-89.0895,"lo2":-89.0444,"dy":0.0017,"dx":0.0017,"nx":28,"ny":28,"refTime":"2025-04-24T03:00:00:Z","depth":0,"parameterNumber":2,"parameterNumberName":"U-component_of_WINDS"},"data":[0,0,0,0,0,0,0,0,0,0,0,0,0,0,0,0,0,0,0,0,0,0,0,0,0,0,0,0,0,0,0,0,0,0,0,0,0,0,0,0,0,0,0,0,0,0,0,0,0,0,0,0,0,0,0,0,0,0,-2.5616,-2.5616,0,-2.5615,-2.5615,-2.5615,-2.5578,-2.5577,-2.5576,-2.5575,-2.5575,-2.5575,-2.5576,0,0,0,0,0,0,0,0,0,0,0,0,0,-2.5587,-2.5588,-2.5616,-2.5616,-2.5616,-2.5615,-2.5615,-2.5615,-2.5578,-2.5577,-2.5576,-2.5575,-2.5574,-2.5575,-2.5576,0,0,0,0,0,0,0,0,0,0,0,0,0,-2.5594,-2.5588,-2.5616,-2.5597,-2.5596,-2.5615,-2.5615,-2.5615,-2.5578,-2.5577,-2.5575,-2.5574,-2.5574,-2.5575,-2.5577,-2.5614,0,0,-2.5581,-2.5581,0,0,0,0,0,0,0,0,-2.5594,-2.5595,-2.56,-2.5599,-2.5597,-2.5595,-2.5605,-2.5615,-2.5579,-2.5585,-2.5575,-2.5573,-2.5583,-2.5583,-2.5586,-2.5614,-2.5614,-2.5581,-2.5582,-2.5582,-2.5583,0,0,0,0,0,0,0,-2.5594,-2.5595,-2.5616,-2.56,-2.5598,-2.559,-2.5589,-2.5606,-2.5592,-2.5584,-2.5582,-2.5582,-2.5581,-2.5585,-2.5586,-2.5614,-2.5581,-2.5582,-2.5583,-2.5583,-2.5673,-2.5675,0,0,0,0,0,0,-2.5595,-2.5595,-2.5616,-2.5616,-2.5592,-2.5591,-2.5591,-2.5597,-2.5592,-2.5589,-2.5583,-2.558,-2.5583,-2.5584,-2.5586,-2.5629,-2.5582,-2.5583,-2.5584,-2.5672,-2.5674,-2.5675,0,0,0,0,0,0,-2.5595,-2.5598,-2.5616,-2.5605,-2.5606,-2.5593,-2.5601,-2.5598,-2.5601,-2.5591,-2.5588,-2.5589,-2.5582,-2.5584,-2.5607,-2.5629,-2.5584,-2.5585,-2.567,-2.5672,-2.5674,-2.5717,0,0,0,0,0,0,-2.5594,-2.5598,-2.5611,-2.5605,-2.5607,-2.5637,-2.5602,-2.5599,-2.5604,-2.56,-2.5596,-2.5594,-2.5581,-2.5606,-2.5609,-2.563,-2.5586,-2.5668,-2.5671,-2.5674,-2.5713,-2.572,-2.5726,0,0,0,0,0,-2.5593,-2.5623,-2.5612,-2.5615,-2.5624,-2.5638,-2.5639,-2.5624,-2.5606,-2.5619,-2.5613,-2.5594,-2.5626,-2.5608,-2.5612,-2.5633,-2.5666,-2.567,-2.5673,-2.5711,-2.5719,-2.5726,0,0,0,0,0,0,-2.5632,-2.5622,-2.561,-2.5638,-2.564,-2.5632,-2.5649,-2.5633,-2.564,-2.5636,-2.5617,-2.5617,-2.5643,-2.5641,-2.5621,-2.567,-2.5643,-2.5647,-2.567,-2.5678,-2.5684,-2.5684,-2.5587,0,0,0,0,0,-2.5644,-2.5656,-2.5647,-2.5673,-2.5674,-2.5662,-2.5668,-2.5656,-2.5656,-2.5657,-2.5652,-2.5653,-2.5664,-2.5671,-2.568,-2.5713,-2.5712,-2.573,-2.5737,-2.5742,-2.5746,-2.5764,-2.5772,-2.5687,-2.5687,-2.5687,0,0,-2.5668,-2.5664,-2.5673,-2.5681,-2.568,-2.5694,-2.5662,-2.5678,-2.5688,-2.5659,-2.5681,-2.5678,-2.5678,-2.5707,-2.5719,-2.5706,-2.5769,-2.5746,-2.5751,-2.5752,-2.5768,-2.5776,-2.5783,-2.5689,-2.5689,-2.5689,0,0,-2.572,-2.5718,-2.574,-2.574,-2.574,-2.5732,-2.5737,-2.5732,-2.5729,-2.5751,-2.573,-2.5742,-2.576,-2.5761,-2.5765,-2.5819,-2.5801,-2.5822,-2.5855,-2.5873,-2.588,-2.5886,-2.5905,-2.5912,-2.5826,-2.5826,-2.5826,0,-2.575,-2.5769,-2.5753,-2.577,-2.5775,-2.575,-2.5772,-2.5773,-2.5776,-2.578,-2.5765,-2.5788,-2.5786,-2.5815,-2.5829,-2.5832,-2.5838,-2.5822,-2.588,-2.5886,-2.5891,-2.5909,-2.5917,-2.5829,-2.5828,-2.5828,-2.5828,0,-2.5807,-2.5821,-2.5839,-2.5842,-2.5849,-2.5869,-2.5856,-2.5864,-2.5853,-2.5846,-2.5869,-2.5867,-2.5875,-2.5882,-2.587,-2.5909,-2.5901,-2.5883,-2.5856,-2.5902,-2.5919,-2.5926,-2.5832,-2.5831,-2.5831,-2.583,0,0,-2.5881,-2.5877,-2.5883,-2.5885,-2.5884,-2.5894,-2.5914,-2.5922,-2.593,-2.5933,-2.5949,-2.5966,-2.595,-2.5954,-2.5943,-2.5958,-2.6002,-2.5939,-2.5939,-2.595,-2.6045,-2.6058,-2.6066,-2.5991,-2.5992,-2.5993,-2.6045,0,-2.5931,-2.5963,-2.595,-2.5983,-2.5996,-2.5973,-2.599,-2.5992,-2.5987,-2.5997,-2.5992,-2.6004,-2.5982,-2.5984,-2.5999,-2.5993,-2.602,-2.5989,-2.6005,-2.6006,-2.6005,-2.6075,-2.6089,-2.6138,-2.6051,-2.6053,-2.6053,0,-2.5993,-2.5999,-2.6034,-2.6031,-2.6036,-2.6052,-2.6059,-2.6069,-2.6071,-2.6066,-2.6071,-2.6056,-2.6076,-2.6049,-2.6076,-2.6055,-2.6061,-2.606,-2.6061,-2.6062,-2.6032,-2.6077,-2.6153,-2.616,-2.6064,-2.6063,-2.6062,0,-2.6044,-2.6061,-2.6084,-2.6086,-2.6084,-2.6095,-2.6095,-2.6095,-2.6101,-2.6108,-2.6111,-2.612,-2.6125,-2.6132,-2.6121,-2.6103,-2.615,-2.6122,-2.6146,-2.6147,-2.6156,-2.6156,-2.6234,-2.6161,-2.6161,-2.6161,-2.6161,0,-2.61,-2.6123,-2.6107,-2.6121,-2.6146,-2.6131,-2.6156,-2.6153,-2.6153,-2.6167,-2.6148,-2.6161,-2.6146,-2.6158,-2.6149,-2.6173,-2.6175,-2.6172,-2.6169,-2.6174,-2.6174,-2.6177,-2.6173,-2.6163,-2.6162,-2.6162,-2.6162,0,-2.6161,-2.6151,-2.6175,-2.6171,-2.6171,-2.6189,-2.6186,-2.6199,-2.6193,-2.6211,-2.6214,-2.6205,-2.6218,-2.6208,-2.6221,-2.6215,-2.6246,-2.6239,-2.6246,-2.6244,-2.6268,-2.6266,-2.6351,-2.6361,-2.6282,-2.6283,-2.6283,0,-2.6198,-2.6214,-2.6212,-2.622,-2.6221,-2.6234,-2.624,-2.6226,-2.6234,-2.6238,-2.6251,-2.6263,-2.6271,-2.6294,-2.6288,-2.6299,-2.6291,-2.632,-2.6293,-2.6296,-2.6292,-2.6291,-2.6292,-2.6326,-2.6326,-2.6327,-2.6328,0,-2.6264,-2.6258,-2.6268,-2.6277,-2.6285,-2.6291,-2.6296,-2.6304,-2.629,-2.6299,-2.6313,-2.632,-2.6333,-2.6345,-2.6354,-2.6354,-2.6339,-2.6337,-2.6343,-2.6347,-2.635,-2.6349,-2.6261,-2.6335,-2.6334,-2.6333,-2.6333,-2.6333,-2.6313,-2.6327,-2.6328,-2.634,-2.6343,-2.6348,-2.636,-2.6356,-2.6367,-2.6377,-2.6368,-2.6385,-2.6387,-2.6397,-2.6399,-2.6412,-2.64,-2.6409,-2.6411,-2.6413,-2.6417,-2.6349,-2.6413,-2.6413,-2.6413,-2.6413,-2.6412,0,-2.6379,-2.6378,-2.639,-2.6397,-2.6407,-2.6392,-2.6397,-2.6406,-2.642,-2.6423,-2.6433,-2.6449,-2.646,-2.6457,-2.6467,-2.6478,-2.6472,-2.6482,-2.6481,-2.6481,-2.6427,-2.642,-2.6487,-2.6487,-2.6487,-2.6487,-2.6487,-2.6487,-2.6414,-2.6437,-2.6432,-2.6456,-2.6456,-2.6472,-2.6476,-2.648,-2.6483,-2.6502,-2.6511,-2.6509,-2.6509,-2.652,-2.6531,-2.6529,-2.6534,-2.6547,-2.6543,-2.6492,-2.6485,-2.6478,-2.6471,-2.6548,-2.6548,-2.6596,-2.6596,-2.6597]},{"header":{"parameterUnit":"m.s-1","parameterCategory":1,"la1":30.2991,"la2":30.254,"lo1":-89.0895,"lo2":-89.0444,"dy":0.0017,"dx":0.0017,"nx":28,"ny":28,"refTime":"2025-04-24T03:00:00:Z","depth":0,"parameterNumber":3,"parameterNumberName":"V-component_of_WINDS"},"data":[0,0,0,0,0,0,0,0,0,0,0,0,0,0,0,0,0,0,0,0,0,0,0,0,0,0,0,0,0,0,0,0,0,0,0,0,0,0,0,0,0,0,0,0,0,0,0,0,0,0,0,0,0,0,0,0,0,0,4.0829,4.0829,0,4.0799,4.0799,4.0798,4.0748,4.0747,4.0746,4.0745,4.0713,4.0713,4.0714,0,0,0,0,0,0,0,0,0,0,0,0,0,4.0844,4.0844,4.0829,4.0829,4.0828,4.0799,4.0799,4.0798,4.0748,4.0747,4.0746,4.0745,4.0713,4.0713,4.0714,0,0,0,0,0,0,0,0,0,0,0,0,0,4.0828,4.0844,4.0829,4.08,4.0797,4.0799,4.0799,4.0798,4.0748,4.0747,4.0746,4.0744,4.0713,4.0713,4.0714,4.0742,0,0,4.0714,4.0714,0,0,0,0,0,0,0,0,4.0829,4.0827,4.0805,4.0802,4.0799,4.0776,4.0792,4.0779,4.0749,4.0767,4.0745,4.0744,4.0735,4.0733,4.0731,4.074,4.0739,4.0714,4.0714,4.0714,4.0714,0,0,0,0,0,0,0,4.083,4.0828,4.0817,4.0804,4.0801,4.0788,4.0785,4.0789,4.0759,4.0765,4.0761,4.0759,4.0733,4.0731,4.073,4.0738,4.0714,4.0714,4.0714,4.0714,4.077,4.0772,0,0,0,0,0,0,4.0835,4.083,4.0818,4.0816,4.0811,4.0789,4.0785,4.0785,4.0759,4.0754,4.076,4.0756,4.0732,4.073,4.0728,4.076,4.0714,4.0714,4.0714,4.0769,4.0771,4.0772,0,0,0,0,0,0,4.0836,4.0835,4.0819,4.0822,4.0819,4.079,4.079,4.0785,4.0782,4.0755,4.0749,4.0763,4.073,4.0728,4.0739,4.0758,4.0714,4.0714,4.0767,4.0769,4.0771,4.0823,0,0,0,0,0,0,4.0836,4.0835,4.0845,4.0823,4.0819,4.0831,4.0792,4.0785,4.0782,4.0778,4.0756,4.0751,4.0729,4.0739,4.0739,4.0757,4.0714,4.0765,4.0768,4.0771,4.0819,4.0827,4.0833,0,0,0,0,0,4.0837,4.0861,4.0846,4.0845,4.0831,4.0832,4.083,4.0804,4.0784,4.0794,4.0777,4.0752,4.0756,4.0741,4.074,4.0759,4.0764,4.0767,4.077,4.0816,4.0825,4.0833,0,0,0,0,0,0,4.0886,4.0857,4.0841,4.0858,4.0848,4.0823,4.0835,4.0814,4.0809,4.0804,4.0772,4.0768,4.0783,4.0772,4.0755,4.0785,4.0756,4.076,4.0791,4.08,4.0806,4.0808,4.0714,0,0,0,0,0,4.0899,4.0902,4.0876,4.0894,4.089,4.0864,4.0863,4.0844,4.0832,4.0827,4.0811,4.08,4.0799,4.0799,4.0796,4.0818,4.0813,4.0831,4.0838,4.0843,4.0846,4.0857,4.0865,4.0783,4.0783,4.0783,0,0,4.0925,4.091,4.0913,4.0903,4.0893,4.0897,4.086,4.0865,4.0868,4.0828,4.0837,4.0825,4.0811,4.0828,4.0834,4.0819,4.0868,4.0847,4.0852,4.0852,4.0862,4.0869,4.0876,4.0785,4.0785,4.0785,0,0,4.0975,4.0964,4.0977,4.0968,4.0954,4.0936,4.094,4.0919,4.091,4.0919,4.0889,4.0892,4.0891,4.0882,4.0877,4.0926,4.0903,4.0926,4.0961,4.0972,4.0979,4.0984,4.1002,4.1008,4.093,4.093,4.093,0,4.1009,4.1013,4.0987,4.0994,4.0991,4.0956,4.0969,4.0962,4.0948,4.0946,4.093,4.0928,4.0916,4.0931,4.0943,4.094,4.0943,4.0928,4.098,4.0985,4.099,4.1006,4.1013,4.0933,4.0932,4.0932,4.0932,0,4.1056,4.106,4.1073,4.106,4.1058,4.1069,4.1044,4.1046,4.1028,4.1012,4.1022,4.1007,4.1001,4.1004,4.0986,4.1016,4.1007,4.0986,4.0956,4.1001,4.1016,4.1022,4.0937,4.0936,4.0935,4.0934,0,0,4.1134,4.1108,4.1113,4.1107,4.109,4.1092,4.1102,4.1096,4.1098,4.109,4.1097,4.1098,4.1079,4.1074,4.1055,4.1065,4.1105,4.1043,4.1042,4.1055,4.1138,4.1153,4.116,4.1091,4.1092,4.1092,4.1139,0,4.1179,4.1193,4.117,4.119,4.1193,4.1162,4.117,4.116,4.1147,4.1148,4.1133,4.1134,4.1109,4.1106,4.1114,4.1099,4.1121,4.1095,4.1096,4.1097,4.11,4.1168,4.1184,4.1228,4.1144,4.1145,4.1146,0,4.1233,4.1229,4.1249,4.1231,4.1232,4.1239,4.1233,4.1235,4.1224,4.1213,4.1209,4.1187,4.1196,4.1168,4.118,4.1162,4.1162,4.1155,4.1156,4.1154,4.1123,4.1168,4.1242,4.1248,4.1155,4.1154,4.1153,0,4.1287,4.1286,4.1298,4.1294,4.1274,4.1281,4.1272,4.126,4.1259,4.1254,4.1253,4.1249,4.1247,4.1245,4.1223,4.1205,4.1237,4.1207,4.1228,4.1229,4.1235,4.1235,4.131,4.1237,4.1237,4.1236,4.1236,0,4.134,4.1353,4.1322,4.133,4.1344,4.1318,4.1334,4.1322,4.1312,4.1317,4.1289,4.1295,4.1266,4.1268,4.1251,4.1263,4.1262,4.1254,4.1249,4.1256,4.1257,4.1254,4.125,4.1238,4.1238,4.1237,4.1237,0,4.1402,4.1382,4.1393,4.1373,4.1369,4.1381,4.1364,4.137,4.1356,4.1362,4.1362,4.134,4.1341,4.1319,4.1316,4.1305,4.1325,4.1315,4.1328,4.1325,4.1347,4.1345,4.1422,4.143,4.1353,4.1353,4.1354,0,4.1436,4.1446,4.1428,4.143,4.1423,4.1426,4.1425,4.14,4.14,4.1389,4.1397,4.1396,4.1394,4.1398,4.1381,4.1379,4.1369,4.1396,4.1368,4.1375,4.1369,4.1368,4.1369,4.1401,4.1402,4.1403,4.1404,0,4.1499,4.1489,4.1489,4.1485,4.1485,4.1481,4.1475,4.1478,4.1452,4.1453,4.1455,4.1453,4.1451,4.1451,4.1446,4.1437,4.1416,4.1413,4.1417,4.1424,4.1431,4.1427,4.1343,4.1411,4.141,4.141,4.1409,4.1409,4.1548,4.1555,4.1544,4.1545,4.1538,4.1534,4.1539,4.1526,4.1527,4.1523,4.1509,4.1513,4.1503,4.1494,4.1488,4.1491,4.1478,4.1484,4.1486,4.1488,4.1492,4.1432,4.149,4.149,4.149,4.1489,4.1489,0,4.1609,4.1601,4.1602,4.1595,4.1596,4.1577,4.157,4.1572,4.1576,4.1569,4.1568,4.157,4.157,4.1554,4.1552,4.1558,4.1548,4.1558,4.1557,4.1556,4.1504,4.15,4.1566,4.1566,4.1566,4.1566,4.1566,4.1566,4.1641,4.1653,4.1642,4.165,4.1642,4.1646,4.1644,4.164,4.1634,4.1638,4.1638,4.1628,4.1617,4.1614,4.1614,4.1609,4.161,4.1623,4.1615,4.1567,4.1559,4.1552,4.1548,4.1623,4.1624,4.1666,4.1667,4.1667]}]]